Regional Weather Roundup
Issued by NWS Lake Charles, LA

Home | Current Version | Previous Version | Text Only | Print | Product List | Glossary On
Versions: 1 2 3 4 5 6 7 8 9 10 11 12 13 14 15 16 17 18 19 20 21 22 23 24 25 26 27 28 29 30 31 32 33 34 35 36 37 38 39 40 41 42 43 44 45 46 47 48 49 50
000
ASUS44 KLCH 182110
RWRLCH
RWRLCH
REGIONAL WEATHER ROUNDUP
NATIONAL WEATHER SERVICE LAKE CHARLES LA
400 PM CDT THU SEP 18 2014

Note: "fair" indicates few or no clouds below 12,000 feet with no
significant weather and/or obstructions to visibility.


ACROSS SOUTHEAST TEXAS

CITY           SKY/WX    TMP DP  RH WIND       PRES   REMARKS
BEAUMONT       LGT RAIN  79  75  87 NE5       29.87F
BEAUMONT CITY  DRIZZLE   77  74  92 CALM      29.88F
ORANGE         RAIN     N/A N/A N/A E5        29.90S
JASPER         RAIN      72  70  93 CALM      29.93R
$$

ACROSS CENTRAL LOUISIANA

CITY           SKY/WX    TMP DP  RH WIND       PRES   REMARKS
LEESVILLE      LGT RAIN  77  74  90 CALM      29.89F
FULLERTON      LGT RAIN  81  74  79 CALM      29.87S
ALEXANDRIA INT CLOUDY    84  73  69 S6        29.86F
ESLER FIELD    CLOUDY    86  73  65 CALM      29.88F
DERIDDER       LGT RAIN  76  74  95 CALM      29.91S
OAKDALE        LGT RAIN  80  76  87 CALM      29.88S
OPELOUSAS      MOCLDY    82  74  77 CALM      29.87F
$$

ACROSS SOUTHWEST AND SOUTH CENTRAL LOUISIANA

CITY           SKY/WX    TMP DP  RH WIND       PRES   REMARKS
SULPHUR        HVY RAIN  74  73  96 CALM      29.90R VSB 1/2
LAKE CHARLES   RAIN      73  72  94 SW5       29.89R FOG
CHENNAULT INT  LGT RAIN  79  75  89 CALM      29.89S
CAMERON PHI    CLEAR     77  73  88 E6        29.91S
DEQUINCY       CLOUDY    76  75  96 CALM      29.89F
JENNINGS       LGT RAIN  80  74  82 CALM      29.87F
LAFAYETTE      CLOUDY    83  76  79 CALM      29.87F
NEW IBERIA     CLOUDY    84  74  71 S3        29.88F
ABBEVILLE        N/A     80  75  84 CALM      29.88S
PATTERSON      CLOUDY    82  75  78 SE5       29.89F
SALT POINT       N/A     85  76  74 VRB5      29.86F
$$

SELECTED SITES ACROSS THE REGION

CITY           SKY/WX    TMP DP  RH WIND       PRES   REMARKS
HOUSTON BUSH   CLOUDY    81  76  84 SE12      29.85F
HOUSTON HOBBY  PTSUNNY   77  74  90 E7        29.85F
GALVESTON      HVY RAIN  75  74  96 NE7       29.87F FOG
COLLEGE STAT   LGT RAIN  78  75  90 E7        29.84F
CONROE         CLOUDY    75  74  96 VRB3      29.87S
HUNTSVILLE     CLOUDY    79  74  84 E3        29.87S
LUFKIN         LGT RAIN  74  69  85 E8        29.91F
SHREVEPORT     PTSUNNY   86  71  60 VRB3      29.85F
MONROE         PTSUNNY   84  73  69 NW3       29.87F
NATCHEZ MS     CLOUDY    82  73  74 S5        29.90S
BATON ROUGE    CLOUDY    86  72  62 N6        29.87F
N.O. INTL ARPT PTSUNNY   87  73  63 S9        29.86F
SLIDELL        CLOUDY    87  73  62 SE6       29.87F
$$

MARINE REPORTS

STATION/POSITION TIME  TEMP    WIND        PRES    VSBY  WAVE
                       AIR SEA DIR/SP/G                  HT/PER
                 (UTC) (F)     (DEG/KT/KT) (MB)    (MI)  (FT/S)
BUOY 30 S HIGH I 2100   75 83   20/  8/ 10 1011.2F         2/ 3
SEA RIM ST PARK  2100   77      50/  3/  3 1012.1F
PORT ARTHUR      2100      83   70/  2/  4 1011.7F
SABINE PASS N    2100   79 82   50/  4/  5 1011.7F
TEXAS POINT      2100   79 82   50/  4/  5 1011.7F
CALCASIEU PASS   2100   77 83   80/  5/  7 1012.7F
LK CHARLES BEACH 2100   78 84              1012.1R
MARSH ISLAND     NOT AVBL
FRESH WATER LOCK 2100   80 83  110/  3/  4 1011.7S
AMERADA PASS     2100   78 84  190/  2/  5 1011.3F
$$


USA.gov is the U.S. government's official web portal to all federal, state and local government web resources and services.